Waarnemingen

Advertentie
Mijn weer
Aultbea, Groot Brittannië (3034): temperatuur & dauwpunt: 12.10.2017 06:00:00 - 18.10.2017 06:00:00 (BST)Aultbea, Groot Brittannië (3034): temperatuur -20cm & temperatuur -100cm: 12.10.2017 06:00:00 - 18.10.2017 06:00:00 (BST)Aultbea, Groot Brittannië (3034): windsnelheid & windstoten: 12.10.2017 06:00:00 - 18.10.2017 06:00:00 (BST)Aultbea, Groot Brittannië (3034): windrichting: 12.10.2017 06:00:00 - 18.10.2017 06:00:00 (BST)Aultbea, Groot Brittannië (3034): luchtdruk: 12.10.2017 06:00:00 - 18.10.2017 06:00:00 (BST)Aultbea, Groot Brittannië (3034): zicht: 12.10.2017 06:00:00 - 18.10.2017 06:00:00 (BST)Aultbea, Groot Brittannië (3034): neerslag: 12.10.2017 06:00:00 - 18.10.2017 06:00:00 (BST)
Datum & Tijd tt [°C] td [°C] tt -20cm [°C] tt -100cm [°C] ff [km/u] ff [kn] fx [km/u] fx [kn] dd ppp [hPa] vv [km] rr [mm]
18.10.2017 06:00:00 5,4 2,8 - - 9 5 - - O 1015,0 40 0,0
18.10.2017 05:00:00 5,2 2,6 - - 8 4 - - O 1015,4 45 0,0
18.10.2017 04:00:00 4,9 2,4 - - 9 5 - - ONO 1015,8 35 0,0
18.10.2017 03:00:00 6,1 3,2 - - 13 7 - - ONO 1016,0 35 0,0
18.10.2017 02:00:00 7,1 3,7 - - 16 9 - - ONO 1016,0 25 0,0
18.10.2017 01:00:00 7,4 4,6 - - 22 12 - - ONO 1016,1 30 0,0
18.10.2017 00:00:00 7,5 4,8 - - 16 9 - - NO 1016,3 21 0,0
17.10.2017 23:00:00 6,8 4,4 - - 11 6 - - ONO 1016,2 20 0,0
17.10.2017 22:00:00 8,5 5,6 - - 11 6 - - ONO 1015,9 24 0,0
17.10.2017 21:00:00 8,1 5,0 - - 16 9 - - NO 1015,6 18 0,0
17.10.2017 20:00:00 8,6 5,8 - - 15 8 - - NO 1015,3 18 0,2
17.10.2017 19:00:00 9,1 6,2 - - 16 9 - - NNO 1014,7 18 0,0
17.10.2017 18:00:00 9,5 7,4 - - 21 11 - - NNO 1013,9 15 0,0
17.10.2017 17:00:00 9,8 7,7 - - 22 12 - - N 1013,1 14 0,0
17.10.2017 16:00:00 10,0 8,1 - - 22 12 - - N 1012,1 20 0,0
17.10.2017 15:00:00 9,9 8,1 - - 21 11 - - NNO 1010,7 14 0,0
17.10.2017 14:00:00 10,8 8,4 - - 22 12 48 26 NNO 1009,3 18 0,0
17.10.2017 13:00:00 10,2 8,7 - - 29 16 55 30 N 1007,9 16 0,0
17.10.2017 12:00:00 10,5 8,9 - - 29 16 52 28 N 1006,2 12 0,0
17.10.2017 11:00:00 10,3 9,2 - - 29 16 48 26 N 1003,9 12 0,0
17.10.2017 10:00:00 10,5 9,6 11,0 11,7 26 14 48 26 N 1001,4 11 0,2
17.10.2017 09:00:00 11,0 10,3 - - 21 11 - - NNW 999,0 4,5 0,0
17.10.2017 08:00:00 11,5 10,8 - - 13 7 - - NNW 996,6 10 0,2
17.10.2017 07:00:00 12,1 11,3 - - 11 6 - - WNW 994,5 9 0,2
17.10.2017 06:00:00 11,9 11,1 - - 13 7 - - W 992,5 11 0,0
17.10.2017 05:00:00 11,6 10,7 - - 9 5 - - NNW 990,3 26 0,0
17.10.2017 04:00:00 11,4 10,2 - - 16 9 - - NO 988,1 45 0,4
17.10.2017 03:00:00 11,5 10,4 - - 16 9 - - NO 987,5 17 1,0
17.10.2017 02:00:00 11,6 10,2 - - 16 9 - - ONO 987,7 15 1,0
17.10.2017 01:00:00 11,8 10,0 - - 18 10 - - NO 987,9 26 0,8
17.10.2017 00:00:00 12,5 9,2 - - 11 6 - - ONO 988,7 50 0,0
16.10.2017 23:00:00 13,0 8,8 - - 13 7 - - O 989,6 50 0,0
16.10.2017 22:00:00 13,8 8,7 - - 18 10 - - O 990,4 50 0,0
16.10.2017 21:00:00 12,4 9,9 - - 26 14 55 30 ONO 991,9 35 0,0
16.10.2017 20:00:00 11,7 9,3 - - 39 21 57 31 ONO 994,3 35 0,0
16.10.2017 19:00:00 11,2 8,5 - - 39 21 61 33 ONO 995,9 40 -
16.10.2017 18:00:00 11,8 7,7 - - 35 19 57 31 O 997,1 50 0,0
16.10.2017 17:00:00 11,5 8,0 - - 34 18 55 30 O 1000,1 50 0,0
16.10.2017 16:00:00 10,8 7,8 - - 26 14 55 30 ONO 1001,9 50 0,0
16.10.2017 15:00:00 9,7 7,2 - - 29 16 48 26 O 1003,9 50 0,0
16.10.2017 14:00:00 8,8 6,8 - - 28 15 54 29 ONO 1007,0 50 0,2
16.10.2017 13:00:00 8,5 6,4 - - 29 16 - - ONO 1009,2 20 0,2
16.10.2017 12:00:00 7,7 6,0 - - 21 11 - - ONO 1011,5 18 1,6
16.10.2017 11:00:00 7,8 5,9 - - 13 7 - - O 1012,8 11 0,8
16.10.2017 10:00:00 8,8 6,9 11,2 11,7 15 8 - - ZO 1014,0 20 1,2
16.10.2017 09:00:00 8,6 7,2 - - 4 2 - - ZO 1014,2 35 0,0
16.10.2017 08:00:00 8,2 6,5 - - 4 2 - - O 1013,0 40 0,0
16.10.2017 07:00:00 8,7 7,0 - - 5 3 - - OZO 1014,1 50 0,0
16.10.2017 06:00:00 9,1 7,3 - - 8 4 - - ZZO 1014,2 45 0,0
16.10.2017 05:00:00 8,9 7,4 - - 8 4 - - ZO 1013,8 45 0,0
16.10.2017 04:00:00 9,2 7,5 - - 9 5 - - ZZO 1013,9 40 0,0
16.10.2017 03:00:00 9,3 7,4 - - 9 5 - - ZZO 1014,1 45 0,0
16.10.2017 02:00:00 9,5 7,2 - - 9 5 - - Z 1014,0 35 0,0
16.10.2017 01:00:00 9,8 7,1 - - 13 7 - - Z 1013,8 45 0,0
16.10.2017 00:00:00 9,8 7,3 - - 13 7 - - Z 1014,1 30 0,0
15.10.2017 23:00:00 9,7 7,7 - - 15 8 - - Z 1013,4 40 0,0
15.10.2017 22:00:00 9,9 7,4 - - 9 5 - - ZZW 1012,9 35 0,0
15.10.2017 21:00:00 9,7 7,5 - - 8 4 - - ZW 1012,2 35 0,0
15.10.2017 20:00:00 9,6 7,4 - - 5 3 - - ZW 1011,7 35 0,0
15.10.2017 19:00:00 9,6 7,5 - - 8 4 - - ZW 1011,0 35 0,0
15.10.2017 18:00:00 9,8 6,6 - - 22 12 - - W 1010,1 50 0,0
15.10.2017 17:00:00 10,8 7,6 - - 22 12 - - W 1009,4 24 0,0
15.10.2017 16:00:00 10,3 8,2 - - 22 12 - - W 1007,8 25 0,2
15.10.2017 15:00:00 10,8 8,1 - - 31 17 52 28 W 1006,2 20 0,0
15.10.2017 14:00:00 11,6 9,4 - - 37 20 81 44 WZW 1003,3 21 0,6
15.10.2017 13:00:00 15,0 12,4 - - 63 34 91 49 ZZW 999,5 16 0,0
15.10.2017 12:00:00 15,3 12,6 - - 63 34 83 45 ZZW 998,0 5 0,0
15.10.2017 11:00:00 15,1 12,6 - - 59 32 80 43 Z 997,9 11 0,0
15.10.2017 10:00:00 14,3 12,7 11,4 11,7 61 33 78 42 Z 998,4 4,6 0,2
15.10.2017 09:00:00 14,0 12,5 - - 50 27 83 45 Z 999,3 4,6 0,0
15.10.2017 08:00:00 14,1 12,2 - - 54 29 81 44 Z 999,5 17 0,2
15.10.2017 07:00:00 14,5 12,4 - - 59 32 78 42 Z 1000,1 14 0,2
15.10.2017 06:00:00 14,0 12,4 - - 55 30 76 41 Z 1000,7 7 2,2
15.10.2017 05:00:00 13,9 12,1 - - 52 28 74 40 Z 1001,7 4,6 0,8
15.10.2017 04:00:00 13,7 11,9 - - 52 28 72 39 Z 1002,7 8 2,2
15.10.2017 03:00:00 13,5 11,8 - - 52 28 68 37 Z 1004,0 9 2,0
15.10.2017 02:00:00 9,4 8,6 - - 13 7 - - O 1005,5 8 2,8
15.10.2017 01:00:00 8,9 7,9 - - 5 3 - - W 1007,2 7 2,2
15.10.2017 00:00:00 8,7 7,4 - - 11 6 - - O 1008,2 14 1,2
14.10.2017 23:00:00 8,9 7,7 - - 11 6 - - O 1010,5 12 1,6
14.10.2017 22:00:00 9,7 8,6 - - 11 6 - - ZO 1011,7 11 0,6
14.10.2017 21:00:00 10,7 8,4 - - 15 8 - - ZZW 1012,0 15 0,0
14.10.2017 20:00:00 11,3 8,4 - - 9 5 - - ZZO 1012,4 20 0,0
14.10.2017 19:00:00 11,6 8,9 - - 26 14 - - ZZW 1012,5 16 0,0
14.10.2017 18:00:00 11,9 8,5 - - 29 16 - - ZZW 1013,3 15 0,0
14.10.2017 17:00:00 12,2 7,5 - - 18 10 - - ZW 1013,4 16 0,0
14.10.2017 16:00:00 12,5 7,3 - - 22 12 48 26 ZW 1013,3 17 0,0
14.10.2017 15:00:00 12,5 7,1 - - 28 15 46 25 ZW 1012,9 15 0,0
14.10.2017 14:00:00 12,4 7,7 - - 26 14 46 25 ZW 1012,7 15 0,0
14.10.2017 13:00:00 11,8 9,3 - - 24 13 52 28 ZW 1012,7 22 0,2
14.10.2017 12:00:00 12,8 8,5 - - 26 14 46 25 ZW 1011,8 13 0,0
14.10.2017 11:00:00 12,2 7,0 - - 28 15 48 26 ZW 1011,2 15 0,0
14.10.2017 10:00:00 11,8 7,0 11,4 11,7 29 16 50 27 ZW 1010,9 19 0,0
14.10.2017 09:00:00 11,6 7,8 - - 29 16 52 28 ZW 1010,5 9 0,0
14.10.2017 08:00:00 10,8 7,6 - - 26 14 50 27 ZW 1009,7 13 0,2
14.10.2017 07:00:00 11,3 7,4 - - 24 13 48 26 ZW 1009,3 13 0,0
14.10.2017 06:00:00 11,0 7,2 - - 31 17 65 35 ZW 1009,2 13 0,0
14.10.2017 05:00:00 10,7 8,3 - - 31 17 61 33 ZW 1008,9 13 1,0
14.10.2017 04:00:00 10,1 7,3 - - 34 18 59 32 ZW 1009,0 4,7 0,2
14.10.2017 03:00:00 11,6 7,7 - - 34 18 57 31 ZW 1008,6 16 0,0
14.10.2017 02:00:00 12,4 7,7 - - 48 26 61 33 ZW 1007,9 13 0,0
14.10.2017 01:00:00 12,2 8,0 - - 44 24 63 34 ZW 1007,5 11 0,0
14.10.2017 00:00:00 12,2 7,5 - - 44 24 61 33 ZW 1007,0 14 0,0
13.10.2017 23:00:00 12,2 7,6 - - 44 24 59 32 ZW 1006,7 14 0,0
13.10.2017 22:00:00 12,4 7,7 - - 39 21 59 32 ZW 1006,2 12 0,0
13.10.2017 21:00:00 12,6 7,7 - - 35 19 67 36 ZW 1005,9 12 0,0
13.10.2017 20:00:00 12,7 8,3 - - 42 23 65 35 ZW 1005,4 11 0,0
13.10.2017 19:00:00 12,8 8,3 - - 46 25 68 37 ZW 1004,7 11 0,0
13.10.2017 18:00:00 12,8 8,4 - - 48 26 63 34 ZW 1004,3 11 0,0
13.10.2017 17:00:00 13,0 8,5 - - 46 25 65 35 ZW 1003,8 11 0,0
13.10.2017 16:00:00 13,3 7,9 - - 29 16 76 41 ZW 1003,2 12 0,0
13.10.2017 15:00:00 14,0 9,0 - - 55 30 76 41 ZZW 1002,6 11 0,0
13.10.2017 14:00:00 14,2 9,4 - - 55 30 74 40 ZW 1002,1 12 0,0
13.10.2017 13:00:00 13,3 10,2 - - 48 26 74 40 ZW 1001,6 9 0,0
13.10.2017 12:00:00 13,8 9,9 - - 50 27 70 38 ZW 1000,7 12 0,0
13.10.2017 11:00:00 13,5 10,4 - - 48 26 67 36 ZW 1000,5 10 0,0
13.10.2017 10:00:00 13,9 11,4 11,5 11,7 48 26 68 37 ZW 999,0 13 0,0
13.10.2017 09:00:00 13,1 12,0 - - 41 22 55 30 ZW 998,6 8 0,2
13.10.2017 08:00:00 14,4 13,4 - - 39 21 63 34 ZW 997,8 5 0,4
13.10.2017 07:00:00 14,5 13,6 - - 48 26 67 36 ZZW 997,2 4,0 2,0
13.10.2017 06:00:00 14,8 13,9 - - 41 22 65 35 ZZW 997,1 7 2,0
13.10.2017 05:00:00 14,9 14,0 - - 44 24 70 38 ZZW 997,2 3,6 0,4
13.10.2017 04:00:00 15,1 14,1 - - 46 25 65 35 ZZW 997,3 3,2 0,8
13.10.2017 03:00:00 15,1 14,3 - - 44 24 68 37 ZZW 997,6 5 0,4
13.10.2017 02:00:00 14,7 13,9 - - 46 25 76 41 Z 997,8 2,9 1,6
13.10.2017 01:00:00 14,6 13,3 - - 54 29 80 43 Z 998,0 4,7 0,2
13.10.2017 00:00:00 15,1 12,2 - - 59 32 85 46 Z 998,6 18 0,0
12.10.2017 23:00:00 14,1 11,6 - - 61 33 81 44 Z 999,6 6 0,0
12.10.2017 22:00:00 14,1 10,9 - - 52 28 74 40 Z 1000,3 27 0,0
12.10.2017 21:00:00 13,8 10,0 - - 52 28 74 40 Z 1000,7 35 0,0
12.10.2017 20:00:00 13,0 9,0 - - 39 21 67 36 Z 1002,0 40 0,0
12.10.2017 19:00:00 12,5 8,5 - - 39 21 67 36 Z 1002,5 30 0,0
12.10.2017 18:00:00 12,0 8,5 - - 34 18 57 31 Z 1004,3 29 0,0
12.10.2017 17:00:00 11,9 9,3 - - 34 18 48 26 Z 1005,2 21 0,0
12.10.2017 16:00:00 11,9 8,8 - - 29 16 54 29 Z 1005,6 30 0,0
12.10.2017 15:00:00 11,6 8,6 - - 34 18 52 28 Z 1006,3 12 0,0
12.10.2017 14:00:00 10,8 9,0 - - 26 14 - - ZZW 1007,0 19 0,2
12.10.2017 13:00:00 9,9 8,5 - - 24 13 - - ZW 1007,3 4,0 0,6
12.10.2017 12:00:00 10,6 7,2 - - 28 15 48 26 WZW 1007,0 9 0,0
12.10.2017 11:00:00 11,3 6,6 - - 26 14 - - ZW 1006,4 19 0,0
12.10.2017 10:00:00 10,8 6,2 11,0 11,9 24 13 - - ZW 1005,8 21 0,0
12.10.2017 09:00:00 10,7 6,3 - - 26 14 50 27 WZW 1005,4 15 0,0
12.10.2017 08:00:00 10,6 5,3 - - 26 14 52 28 WZW 1004,4 19 0,0
12.10.2017 07:00:00 10,2 6,2 - - 31 17 54 29 WZW 1004,0 17 0,2
12.10.2017 06:00:00 8,2 4,8 - - 37 20 63 34 W 1003,2 3,0 1,8

tt = temperatuur
td = dauwpunt
tt -20cm = temperatuur -20cm
tt -100cm = temperatuur -100cm
ff = windsnelheid
fx = windstoten
dd = windrichting
ppp = luchtdruk
vv = zicht
rr = neerslag

Weerstations in de omgeving